{"data":{"norad_id":60318,"intl_designator":"2024-133T","name":"STARLINK-32190","alt_names":[],"object_type":"PAYLOAD","status":"ACTIVE","operator":null,"country":"US","launch_date":"2024-07-28","launch_site_code":"AFWTR","launch_vehicle":null,"mission":null,"orbit_class":"UNKNOWN","rcs_meters":null,"size_class":null,"mass_kg":null,"dimensions":null,"purposes":["comms"],"wikipedia_slug":null,"has_3d_model":false,"image_url":null,"decayed_at":null,"tle_current":{"epoch":"2026-09-21T20:03:00.486720Z","epoch_age_seconds":70282,"freshness":"FRESH","line1":"1 60318U 24133T   26264.83542230  .00002183  00000+0  75693-4 0  9995","line2":"2 60318  53.1599 103.6738 0001180  96.3300 263.7837 15.34408517121706","mean_motion":15.34408517,"eccentricity":0.000118,"inclination_deg":53.1599,"raan_deg":103.6738,"arg_perigee_deg":96.33,"mean_anomaly_deg":263.7837,"bstar":7.5693e-5,"rev_number":12170,"period_min":93.847237163113,"perigee_km":461.87070984405,"apogee_km":463.48514216659,"semimajor_km":6840.8149260053,"source":"CELESTRAK","updated_at":"2026-09-22T09:00:49.217593Z"}}}